Kodiak Airport Kodiak US
ICAO: PADQ
IATA:
Category: Medium
Scheduled Services:

Elevation: 78 ft
TransAlt. 18000 ft.

Airport Communications:
ANCHORAGE CNTR:125.1
ATIS:135.5
CTAF:119.8
KENAI RDO:119.8
GND:121.9
TWEB:117.1
OPS:156.8
KENAI RDO:122.2
TWR:119.8
UNICOM:122.8

PADQ Zoom In..

If you have problems with the map follow the link
https://www.worldairports.se/pages/airport.php?
ICAO=PADQ

Runways:

(A) RW 07 length 7550 ft width 150 ft
---- / hdg 74

(B) RW 11 length 5400 ft width 150 ft
---- / hdg 109

(C) RW 18 length 5010 ft width 150 ft
---- / hdg 184

(D) RW 25 length 7550 ft width 150 ft
ILS 110.90 / hdg 254

(E) RW 29 length 5400 ft width 150 ft
---- / hdg 289

(F) RW 36 length 5010 ft width 150 ft
---- / hdg 4

Location; PADQ
Day. 29 / Time. 17.00 Zulu
* Altimeter: 28.49
* Temperature: -05° c. -23°f.
* Wind from: 290° Speed 16 kn with Gusts up to 24 kn.
Dewpoint: -08° c.
Visibility: 1/2 Statute Miles.
Conditions: Snow.

PADQ 291700Z 29016G24KT 1/2SM SN M05/M08 A2849 RMK AO2 P0000 T10501078 $


Wind From 290°
Speed 16 kn.

 
 
jpsmedia worldairports.se 2020   terms of use